Date String (YYYY-MM-DD hh:mm:ss) UTC,Instrument flags,Ambient pressure (hPa),Sample flow (lpm),Bypass flow (lpm),Sample temperature (°C),Ambient temperature (°C),ASC tube jacket temperature (°C),LED temperature (°C),Box temperature (°C),Sample RH (%),Span deviation,Mass concentration (μg/m³),Mass concentration (μg/m³),Mass concentration (μg/m³)
DateTimeUTC,F1_M11,P_M11,Q1_M11,Q2_M11,T1_M11,T2_M11,T3_M11,T4_M11,T5_M11,U1_M11,ZSPAN_M11,X2_M11,X0_M11,X1_M11
2022-07-17 02:00:00,,0828.7,5.00,0.00,29.5,28.2,00.0,38.2,31.4,28.2,0000.0,0004.77,0009.82,0004.16
2022-07-17 02:01:00,,0828.7,5.01,0.00,29.5,28.3,00.0,38.2,31.5,28.0,0000.0,0004.75,0009.64,0004.15
2022-07-17 02:02:00,,0828.9,4.99,0.00,29.6,28.5,00.0,38.2,31.6,27.9,0000.0,0004.75,0009.65,0004.14
2022-07-17 02:03:00,,0829.0,5.01,0.00,29.6,28.3,00.0,38.2,31.6,27.7,0000.0,0004.74,0009.59,0004.14
2022-07-17 02:04:00,,0828.9,5.00,0.00,29.6,27.6,00.0,38.2,31.5,27.5,0000.0,0004.70,0009.51,0004.14
2022-07-17 02:05:00,,0829.0,5.01,0.00,29.6,27.2,00.0,38.1,31.4,27.5,0000.0,0004.66,0009.53,0004.14
2022-07-17 02:06:00,,0829.0,5.00,0.00,29.5,27.1,00.0,38.1,31.3,27.6,0000.0,0004.65,0009.05,0004.15
2022-07-17 02:07:00,,0829.0,5.00,0.00,29.4,27.2,00.0,38.1,31.2,27.6,0000.0,0004.65,0008.61,0004.15
2022-07-17 02:08:00,,0829.1,5.00,0.00,29.4,27.4,00.0,38.1,31.2,27.6,0000.0,0004.63,0008.52,0004.15
2022-07-17 02:09:00,,0829.0,5.00,0.00,29.4,27.6,00.0,38.1,31.3,27.7,0000.0,0004.59,0008.34,0004.16
2022-07-17 02:10:00,,0828.8,5.00,0.00,29.4,27.8,00.0,38.1,31.3,27.6,0000.0,0004.56,0008.03,0004.16
2022-07-17 02:11:00,,0828.7,5.01,0.00,29.4,28.0,00.0,38.2,31.4,27.7,0000.0,0004.59,0008.36,0004.16
2022-07-17 02:12:00,,0828.8,4.99,0.00,29.5,28.1,00.0,38.2,31.4,27.8,0000.0,0004.59,0008.60,0004.16
2022-07-17 02:13:00,,0828.6,5.00,0.00,29.5,28.3,00.0,38.2,31.5,27.8,0000.0,0004.61,0008.65,0004.17
2022-07-17 02:14:00,,0828.6,5.01,0.00,29.5,28.4,00.0,38.2,31.5,27.9,0000.0,0004.62,0008.72,0004.17
2022-07-17 02:15:00,,0828.6,4.99,0.00,29.6,28.1,00.0,38.2,31.6,28.0,0000.0,0004.65,0008.77,0004.16
2022-07-17 02:16:00,,0828.8,5.00,0.00,29.6,27.4,00.0,38.1,31.4,27.9,0000.0,0004.66,0008.60,0004.17
2022-07-17 02:17:00,,0829.1,5.00,0.00,29.5,27.1,00.0,38.1,31.3,27.7,0000.0,0004.68,0008.63,0004.17
2022-07-17 02:18:00,,0829.2,5.00,0.00,29.4,27.0,00.0,38.1,31.2,27.5,0000.0,0004.69,0008.64,0004.17
2022-07-17 02:19:00,,0829.1,5.00,0.00,29.4,27.2,00.0,38.1,31.1,27.9,0000.0,0004.70,0008.66,0004.17
2022-07-17 02:20:00,,0829.0,5.00,0.00,29.4,27.3,00.0,38.1,31.2,28.3,0000.0,0004.74,0008.79,0004.18
2022-07-17 02:21:00,,0828.6,5.01,0.00,29.4,27.5,00.0,38.1,31.2,28.0,0000.0,0004.73,0008.80,0004.19
2022-07-17 02:22:00,,0828.7,5.01,0.00,29.4,27.8,00.0,38.1,31.3,28.2,0000.0,0004.74,0008.11,0004.22
2022-07-17 02:23:00,,0828.7,4.99,0.00,29.4,27.9,00.0,38.1,31.3,28.7,0000.0,0004.73,0007.87,0004.24
2022-07-17 02:24:00,,0828.7,5.01,0.00,29.4,28.1,00.0,38.1,31.4,29.2,0000.0,0004.75,0008.45,0004.26
2022-07-17 02:25:00,,0828.7,4.99,0.00,29.5,28.3,00.0,38.2,31.4,29.5,0000.0,0004.77,0008.45,0004.28
2022-07-17 02:26:00,,0828.9,5.02,0.00,29.5,28.4,00.0,38.2,31.5,29.8,0000.0,0004.80,0008.99,0004.31
2022-07-17 02:27:00,,0829.3,4.99,0.00,29.6,28.5,00.0,38.2,31.6,30.1,0000.0,0004.84,0009.20,0004.34
2022-07-17 02:28:00,,0829.3,5.01,0.00,29.6,28.1,00.0,38.2,31.5,31.4,0000.0,0004.86,0009.41,0004.37
2022-07-17 02:29:00,,0829.3,5.01,0.00,29.6,27.3,00.0,38.1,31.4,32.4,0000.0,0004.93,0009.89,0004.40
2022-07-17 02:30:00,,0829.3,5.00,0.00,29.5,27.0,00.0,38.1,31.3,33.1,0000.0,0004.99,0010.53,0004.43
2022-07-17 02:31:00,,0829.4,5.00,0.00,29.4,27.0,00.0,38.1,31.2,32.8,0000.0,0005.03,0011.08,0004.46
2022-07-17 02:32:00,,0829.3,5.00,0.00,29.4,27.2,00.0,38.1,31.2,32.5,0000.0,0005.10,0011.72,0004.49
2022-07-17 02:33:00,,0829.3,5.00,0.00,29.4,27.4,00.0,38.1,31.2,32.5,0000.0,0005.14,0012.59,0004.52
2022-07-17 02:34:00,,0829.2,5.01,0.00,29.4,27.6,00.0,38.1,31.2,32.8,0000.0,0005.19,0012.84,0004.54
2022-07-17 02:35:00,,0829.3,5.01,0.00,29.4,27.8,00.0,38.1,31.3,33.0,0000.0,0005.25,0012.69,0004.58
2022-07-17 02:36:00,,0829.2,5.01,0.00,29.4,27.9,00.0,38.1,31.3,33.2,0000.0,0005.29,0013.14,0004.61
2022-07-17 02:37:00,,0829.2,4.99,0.00,29.4,28.1,00.0,38.1,31.4,33.3,0000.0,0005.38,0013.49,0004.64
2022-07-17 02:38:00,,0829.2,5.01,0.00,29.5,28.3,00.0,38.2,31.5,33.4,0000.0,0005.43,0013.59,0004.66
2022-07-17 02:39:00,,0829.0,4.99,0.00,29.5,28.4,00.0,38.2,31.5,33.5,0000.0,0005.47,0013.56,0004.70
2022-07-17 02:40:00,,0828.8,5.01,0.00,29.5,28.4,00.0,38.2,31.6,33.4,0000.0,0005.45,0013.51,0004.73
2022-07-17 02:41:00,,0828.7,5.00,0.00,29.5,27.8,00.0,38.1,31.5,33.2,0000.0,0005.47,0013.00,0004.75
2022-07-17 02:42:00,,0828.7,4.99,0.00,29.5,27.2,00.0,38.1,31.4,33.2,0000.0,0005.51,0012.61,0004.78
2022-07-17 02:43:00,,0828.7,5.02,0.00,29.5,27.0,00.0,38.1,31.3,33.3,0000.0,0005.54,0012.11,0004.80
2022-07-17 02:44:00,,0828.7,4.99,0.00,29.4,27.0,00.0,38.1,31.1,33.3,0000.0,0005.55,0012.01,0004.81
2022-07-17 02:45:00,,0828.7,5.00,0.00,29.3,27.2,00.0,38.1,31.1,33.2,0000.0,0005.59,0012.12,0004.83
2022-07-17 02:46:00,,0828.7,5.00,0.00,29.3,27.3,00.0,38.1,31.1,32.9,0000.0,0005.61,0011.82,0004.85
2022-07-17 02:47:00,,0828.8,5.00,0.00,29.3,27.5,00.0,38.1,31.2,32.5,0000.0,0005.59,0011.72,0004.85
2022-07-17 02:48:00,,0828.9,5.01,0.00,29.3,27.7,00.0,38.1,31.3,32.7,0000.0,0005.54,0011.29,0004.85
2022-07-17 02:49:00,,0829.0,5.01,0.00,29.4,27.9,00.0,38.1,31.3,32.6,0000.0,0005.53,0011.70,0004.86
2022-07-17 02:50:00,,0829.1,4.99,0.00,29.4,28.1,00.0,38.1,31.4,31.7,0000.0,0005.55,0011.89,0004.86
2022-07-17 02:51:00,,0829.1,5.00,0.00,29.4,28.2,00.0,38.1,31.4,31.7,0000.0,0005.54,0011.72,0004.86
2022-07-17 02:52:00,,0829.2,4.99,0.00,29.5,28.4,00.0,38.2,31.5,31.5,0000.0,0005.50,0011.57,0004.84
2022-07-17 02:53:00,,0828.7,5.00,0.00,29.5,28.5,00.0,38.2,31.5,31.4,0000.0,0005.45,0011.91,0004.81
2022-07-17 02:54:00,,0828.7,5.00,0.00,29.6,28.5,00.0,38.2,31.6,31.0,0000.0,0005.37,0012.14,0004.78
2022-07-17 02:55:00,,0828.7,5.00,0.00,29.6,27.8,00.0,38.1,31.5,30.3,0000.0,0005.32,0011.36,0004.75
2022-07-17 02:56:00,,0828.7,4.99,0.00,29.5,27.2,00.0,38.1,31.4,29.8,0000.0,0005.24,0011.03,0004.70
2022-07-17 02:57:00,,0828.7,5.01,0.00,29.5,27.0,00.0,38.1,31.2,30.1,0000.0,0005.17,0010.83,0004.66
2022-07-17 02:58:00,,0828.8,4.99,0.00,29.4,27.0,00.0,38.1,30.8,31.9,0000.0,0005.16,0010.56,0004.63
2022-07-17 02:59:00,,0828.7,5.01,0.00,29.3,27.2,00.0,38.1,31.1,33.1,0000.0,0005.18,0010.43,0004.61
